Simultaneous Nadir Overpasses (SNOs) Predictions

Prediction of SNOs between TERRA and METOP-C Satellite Orbit:

Table of predicted SNOs for the next 14.0 days since TLE Epoch: 11/27/2021
Index Date (TERRA) Time (TERRA) Lat,Lon (TERRA) SZA (TERRA ) Date (METOP-C) Time (METOP-C) Lat,Lon (METOP-C) SZA (METOP-C ) Distance(km) Time Diff (sec)
1 11/28/2021 01:01:33 -81.22, 28.20 74.88 11/28/2021 01:00:46 -81.21, 28.03 74.93 3.01 47
2 11/28/2021 01:50:59 81.22,-164.04 105.14 11/28/2021 01:51:25 81.23,-163.90 105.17 2.37 26
3 11/30/2021 20:35:43 -81.22, 94.71 74.44 11/30/2021 20:35:07 -81.22, 94.81 74.44 1.74 36
4 11/30/2021 21:25:09 81.23, -97.57 105.59 11/30/2021 21:25:47 81.23, -97.48 105.61 1.52 38
5 12/03/2021 16:09:54 -81.22, 161.16 74.06 12/03/2021 16:09:30 -81.22, 161.18 74.07 0.59 24
6 12/03/2021 16:59:20 81.23, -31.14 105.96 12/03/2021 17:00:10 81.23, -31.07 105.99 1.19 50
7 12/06/2021 11:44:05 -81.22,-132.43 73.74 12/06/2021 11:43:53 -81.22,-132.46 73.75 0.61 12
8 12/06/2021 12:33:31 81.22, 35.25 106.27 12/06/2021 12:34:33 81.23, 35.32 106.31 1.42 62
9 12/09/2021 06:28:49 81.19, 125.94 106.46 12/09/2021 06:27:36 81.20, 126.03 106.44 1.77 73
10 12/09/2021 07:18:15 -81.22, -66.07 73.49 12/09/2021 07:18:15 -81.22, -66.12 73.49 0.75 0



Historial Predications of SNOs between TERRA and METOP-C
